Weather in Bambolim

India     15°28′46″N   73°51′19″E
temp.,
°C
wind,
m/s
gust,
m/s
humid.,
%
clouds,
%
prec.,
mm/h
press.,
hPa
HPBL,
m
19 september, sun
sun1923:30+26nw228695 2.9 1010126
02:30+26wsw1285100 0.5 1009106
05:30+26ese1185100 1.3 101072
08:30+27ese228195 0.4 1012187
11:30+28sw2273100 0.4 1012608
14:30+28w3470100 0.0 1009691
17:30+28wnw4577100 0.0 1009520
20:30+27nw3483100 0.4 1011138
20 september, mon
mon2023:30+26nnw3485100 0.6 1011282
02:30+26n2386100 0.1 1009217
05:30+25ne1187100 0.3 1010130
08:30+26ene1184100 0.2 1012199
11:30+27wsw2280100 0.3 1011430
14:30+28wnw557897 0.1 1008622
17:30+27nw4680100 0.1 1008640
20:30+26nw348542 0.8 1010343
21 september, tue
tue2123:30+26nw3486100 2.3 1010231
02:30+26nw238598 0.9 1009290
05:30+26nnw2384100 1.4 1009383
08:30+26nnw228263 1.1 1011329
11:30+27wnw457843 1.1 1010619
14:30+27wnw677983 0.2 1007666
17:30+27nw6884100 2.1 1008557
20:30+26nw578678 3.3 1009510
22 september, wed
wed2223:30+26nw588699 6.2 1009558
02:30+26nw568492 2.3 1007556
05:30+26nw5786100 5.1 1008563
08:30+26nw688798 4.2 1010624
11:30+26nw6885100 6.9 1010665
14:30+25nw6888100 2.2 1007651
17:30+25wnw5885100 3.7 1007528
20:30+25w4687100 1.2 1009456
23 september, thu
thu2323:30+26wnw5787100 5.2 1008479
02:30+26wnw578592 4.1 1006628
05:30+26wnw5883100 7.8 1007642
08:30+26wnw5682100 1.8 1009579
11:30+27w568199 3.8 1009582
14:30+27w678113 2.6 1006623
17:30+26wnw578454 6.9 1007523
20:30+26wnw5786100 4.8 1008490